Location: Orinda
(37.8771°N, 122.1797°W)
Time: 20:22:55
(UTC+00:00)

Cosmos 1602 Rocket - Pass Details

Date: 21 October 2019
Orbit: 604 x 633 km, 82.5° (Epoch: 16 November)

Event Time Altitude Azimuth Distance (km) Brightness Sun altitude
Rises 13:35:50 0° 185° (S) 2,857 7.0 -10.0°
Reaches altitude 10° 13:38:02 10° 185° (S) 1,953 6.1 -9.6°
Maximum altitude 13:42:22 88° 101° (E) 612 3.6 -8.7°
Drops below altitude 10° 13:46:42 10° 8° (N) 1,959 6.1 -7.9°
Sets 13:48:55 0° 8° (N) 2,865 7.0 -7.4°
